| time (UTC) | temp F | wind direction | speed knots | gust knots | rain 1hr in | rain 24hr in | rain mn in | humidity % | barometer mb |
| 20260507033542 | 62 | 254 | 0.0 | 0.9 | 0.00 | 0.05 | 0.05 | 94 | 1008.0 |
| 20260507033039 | 62 | 215 | 0.9 | 1.7 | 0.00 | 0.05 | 0.05 | 94 | 1008.0 |
| 20260507032536 | 62 | 254 | 0.0 | 0.0 | 0.00 | 0.05 | 0.05 | 94 | 1007.8 |
| 20260507032032 | 63 | 261 | 0.0 | 0.0 | 0.00 | 0.05 | 0.05 | 94 | 1007.7 |
| 20260507031528 | 63 | 270 | 0.9 | 1.7 | 0.00 | 0.05 | 0.05 | 94 | 1007.7 |
| 20260507031026 | 63 | 254 | 0.0 | 1.7 | 0.00 | 0.05 | 0.05 | 93 | 1007.8 |
| 20260507030522 | 63 | 261 | 0.0 | 0.9 | 0.00 | 0.05 | 0.05 | 93 | 1008.0 |
| 20260507030020 | 63 | 263 | 0.9 | 1.7 | 0.00 | 0.05 | 0.05 | 93 | 1008.0 |
| 20260507025517 | 63 | 240 | 0.0 | 0.9 | 0.00 | 0.05 | 0.05 | 92 | 1007.8 |
| 20260507025014 | 64 | 206 | 0.0 | 1.7 | 0.00 | 0.05 | 0.05 | 92 | 1008.0 |
| 20260507024512 | 64 | 254 | 0.9 | 1.7 | 0.00 | 0.05 | 0.05 | 91 | 1007.9 |
| 20260507024008 | 64 | 270 | 0.0 | 2.6 | 0.00 | 0.05 | 0.05 | 91 | 1008.0 |
| 20260507023504 | 64 | 172 | 0.0 | 0.9 | 0.00 | 0.05 | 0.05 | 92 | 1008.2 |
| 20260507023002 | 64 | 259 | 1.7 | 1.7 | 0.00 | 0.05 | 0.05 | 93 | 1008.5 |
| 20260507022459 | 63 | 255 | 1.7 | 1.7 | 0.00 | 0.05 | 0.05 | 93 | 1008.3 |
| 20260507021954 | 63 | 203 | 0.0 | 0.0 | 0.00 | 0.05 | 0.05 | 93 | 1008.7 |
| 20260507021450 | 64 | 236 | 1.7 | 3.5 | 0.00 | 0.05 | 0.05 | 93 | 1008.4 |
| 20260507020947 | 63 | 194 | 0.9 | 2.6 | 0.00 | 0.05 | 0.05 | 93 | 1008.5 |
| 20260507020444 | 63 | 240 | 0.0 | 0.0 | 0.00 | 0.05 | 0.05 | 93 | 1008.5 |
| 20260507015941 | 63 | 209 | 0.0 | 1.7 | 0.00 | 0.05 | 0.05 | 92 | 1008.6 |
| 20260507015439 | 63 | 203 | 0.0 | 1.7 | 0.00 | 0.05 | 0.05 | 92 | 1008.7 |
| 20260507014936 | 63 | 187 | 0.0 | 1.7 | 0.00 | 0.05 | 0.05 | 92 | 1008.2 |
| 20260507014432 | 64 | 240 | 0.0 | 0.0 | 0.00 | 0.05 | 0.05 | 92 | 1008.6 |
| 20260507013929 | 64 | 254 | 0.0 | 1.7 | 0.00 | 0.05 | 0.05 | 92 | 1008.7 |
| 20260507013426 | 63 | 240 | 0.0 | 1.7 | 0.00 | 0.05 | 0.05 | 92 | 1008.7 |
| 20260507012923 | 63 | 234 | 0.0 | 0.0 | 0.00 | 0.05 | 0.05 | 92 | 1008.6 |
| 20260507012420 | 63 | 234 | 0.0 | 0.0 | 0.00 | 0.05 | 0.05 | 92 | 1008.6 |
| 20260507011917 | 63 | 234 | 0.0 | 1.7 | 0.00 | 0.05 | 0.05 | 92 | 1008.8 |
| 20260507011414 | 63 | 215 | 0.0 | 1.7 | 0.00 | 0.05 | 0.05 | 92 | 1008.8 |
| 20260507010913 | 63 | 248 | 1.7 | 1.7 | 0.00 | 0.05 | 0.05 | 91 | 1008.7 |
| 20260507010409 | 63 | 246 | 0.0 | 0.0 | 0.00 | 0.05 | 0.05 | 91 | 1008.6 |
| 20260507005906 | 64 | 195 | 0.0 | 1.7 | 0.00 | 0.05 | 0.05 | 91 | 1008.8 |
| 20260507005403 | 64 | 209 | 0.0 | 0.0 | 0.00 | 0.05 | 0.05 | 90 | 1008.4 |
| 20260507004900 | 64 | 209 | 0.0 | 0.9 | 0.00 | 0.05 | 0.05 | 90 | 1008.6 |
| 20260507004357 | 64 | 195 | 0.0 | 0.9 | 0.00 | 0.05 | 0.05 | 89 | 1008.5 |
| 20260507003854 | 65 | 212 | 1.7 | 1.7 | 0.00 | 0.05 | 0.05 | 88 | 1008.1 |
| 20260507003349 | 65 | 262 | 0.0 | 1.7 | 0.00 | 0.05 | 0.05 | 87 | 1008.0 |
| 20260507002845 | 66 | 270 | 0.0 | 1.7 | 0.00 | 0.05 | 0.05 | 87 | 1008.2 |
| 20260507002341 | 66 | 200 | 0.0 | 1.7 | 0.00 | 0.05 | 0.05 | 86 | 1008.1 |
| 20260507001838 | 66 | 246 | 0.0 | 1.7 | 0.00 | 0.05 | 0.05 | 85 | 1007.9 |
| 20260507001335 | 67 | 195 | 0.9 | 2.6 | 0.00 | 0.05 | 0.05 | 85 | 1008.0 |
| 20260507000831 | 67 | 220 | 1.7 | 1.7 | 0.00 | 0.05 | 0.05 | 84 | 1007.9 |
| 20260507000328 | 67 | 203 | 0.0 | 3.5 | 0.00 | 0.05 | 0.05 | 83 | 1007.8 |
| 20260506235824 | 67 | 165 | 0.0 | 3.5 | 0.00 | 0.05 | 0.05 | 83 | 1008.0 |
| 20260506235320 | 67 | 203 | 0.9 | 3.5 | 0.00 | 0.05 | 0.05 | 83 | 1007.8 |
| 20260506234816 | 68 | 240 | 1.7 | 1.7 | 0.00 | 0.05 | 0.05 | 82 | 1008.0 |
| 20260506234314 | 68 | 255 | 0.0 | 2.6 | 0.00 | 0.05 | 0.05 | 81 | 1008.0 |
| 20260506233812 | 69 | 206 | 1.7 | 2.6 | 0.00 | 0.05 | 0.05 | 80 | 1008.0 |
| 20260506233308 | 69 | 278 | 2.6 | 3.5 | 0.00 | 0.05 | 0.05 | 80 | 1007.9 |
| 20260506232805 | 69 | 165 | 1.7 | 4.3 | 0.00 | 0.05 | 0.05 | 79 | 1007.8 |
| 20260506232300 | 69 | 220 | 3.5 | 3.5 | 0.00 | 0.05 | 0.05 | 79 | 1007.7 |
| 20260506231757 | 69 | 251 | 2.6 | 3.5 | 0.00 | 0.05 | 0.05 | 79 | 1008.0 |
| 20260506231255 | 69 | 231 | 1.7 | 2.6 | 0.00 | 0.05 | 0.05 | 80 | 1007.9 |
| 20260506230752 | 69 | 235 | 2.6 | 6.1 | 0.00 | 0.05 | 0.05 | 79 | 1007.9 |
| 20260506230249 | 69 | 233 | 2.6 | 3.5 | 0.00 | 0.05 | 0.05 | 79 | 1008.2 |
| 20260506225745 | 69 | 247 | 4.3 | 5.2 | 0.00 | 0.05 | 0.05 | 79 | 1008.2 |
| 20260506225242 | 69 | 174 | 0.0 | 4.3 | 0.00 | 0.05 | 0.05 | 78 | 1008.1 |
| 20260506224738 | 70 | 238 | 2.6 | 2.6 | 0.00 | 0.05 | 0.05 | 79 | 1007.6 |
| 20260506224236 | 70 | 225 | 1.7 | 4.3 | 0.00 | 0.05 | 0.05 | 78 | 1007.5 |
| 20260506223732 | 70 | 357 | 4.3 | 4.3 | 0.00 | 0.05 | 0.05 | 78 | 1007.9 |
| 20260506223228 | 70 | 180 | 2.6 | 4.3 | 0.00 | 0.05 | 0.05 | 78 | 1007.7 |
| 20260506222725 | 70 | 213 | 1.7 | 4.3 | 0.00 | 0.05 | 0.05 | 77 | 1007.4 |
| 20260506222220 | 70 | 245 | 3.5 | 7.0 | 0.00 | 0.05 | 0.05 | 77 | 1007.6 |
| 20260506221719 | 71 | 222 | 2.6 | 6.1 | 0.00 | 0.05 | 0.05 | 76 | 1007.7 |
| 20260506221217 | 71 | 270 | 2.6 | 13.9 | 0.00 | 0.05 | 0.05 | 76 | 1007.8 |
| 20260506220713 | 71 | 237 | 1.7 | 5.2 | 0.00 | 0.05 | 0.05 | 76 | 1007.5 |
| 20260506215612 | 71 | 261 | 2.6 | 3.5 | 0.00 | 0.05 | 0.05 | 76 | 1007.5 |
| 20260506215107 | 71 | 261 | 2.6 | 3.5 | 0.00 | 0.05 | 0.05 | 76 | 1007.5 |
| 20260506214604 | 71 | 270 | 0.0 | 3.5 | 0.00 | 0.05 | 0.05 | 76 | 1007.7 |
| 20260506213804 | 71 | 210 | 0.0 | 4.3 | 0.00 | 0.05 | 0.05 | 75 | 1007.5 |
| 20260506213300 | 71 | 210 | 0.0 | 4.3 | 0.00 | 0.05 | 0.05 | 75 | 1007.5 |
| 20260506212758 | 71 | 209 | 0.9 | 4.3 | 0.00 | 0.05 | 0.05 | 76 | 1007.5 |
| 20260506212253 | 70 | 180 | 3.5 | 7.0 | 0.00 | 0.05 | 0.05 | 75 | 1007.4 |
| 20260506211748 | 71 | 225 | 0.0 | 3.5 | 0.00 | 0.05 | 0.05 | 77 | 1007.4 |
| 20260506211245 | 71 | 236 | 4.3 | 5.2 | 0.00 | 0.05 | 0.05 | 75 | 1007.3 |
| 20260506210742 | 71 | 273 | 2.6 | 2.6 | 0.00 | 0.05 | 0.05 | 77 | 1007.2 |
| 20260506210239 | 71 | 270 | 0.0 | 2.6 | 0.00 | 0.05 | 0.05 | 76 | 1007.2 |
| 20260506205736 | 71 | 265 | 3.5 | 3.5 | 0.00 | 0.05 | 0.05 | 76 | 1007.0 |
| 20260506205232 | 71 | 141 | 2.6 | 5.2 | 0.00 | 0.05 | 0.05 | 76 | 1007.0 |
| 20260506204729 | 70 | 221 | 1.7 | 6.1 | 0.00 | 0.05 | 0.05 | 76 | 1007.0 |
| 20260506204226 | 71 | 135 | 1.7 | 6.1 | 0.00 | 0.05 | 0.05 | 75 | 1007.0 |
| 20260506203724 | 71 | 135 | 1.7 | 6.1 | 0.00 | 0.05 | 0.05 | 75 | 1007.0 |
| 20260506203221 | 71 | 203 | 5.2 | 7.8 | 0.00 | 0.05 | 0.05 | 75 | 1006.8 |
| 20260506202719 | 71 | 162 | 2.6 | 4.3 | 0.00 | 0.05 | 0.05 | 76 | 1006.9 |
| 20260506201409 | 70 | 234 | 2.6 | 5.2 | 0.00 | 0.05 | 0.05 | 77 | 1007.2 |
| 20260506200905 | 70 | 234 | 2.6 | 5.2 | 0.00 | 0.05 | 0.05 | 77 | 1007.2 |
| 20260506200401 | 71 | 157 | 2.6 | 5.2 | 0.00 | 0.05 | 0.05 | 78 | 1007.1 |
| 20260506195858 | 70 | 225 | 3.5 | 7.0 | 0.00 | 0.05 | 0.05 | 77 | 1007.5 |
| 20260506195355 | 70 | 290 | 1.7 | 7.0 | 0.00 | 0.05 | 0.05 | 79 | 1007.5 |
| 20260506194851 | 69 | 330 | 1.7 | 5.2 | 0.00 | 0.05 | 0.05 | 79 | 1007.7 |
| 20260506194348 | 68 | 277 | 0.9 | 5.2 | 0.00 | 0.05 | 0.05 | 81 | 1007.9 |
| 20260506193846 | 68 | 246 | 4.3 | 5.2 | 0.00 | 0.05 | 0.05 | 81 | 1007.7 |
| 20260506193342 | 68 | 294 | 3.5 | 8.7 | 0.00 | 0.05 | 0.05 | 82 | 1007.9 |
| 20260506192839 | 68 | 204 | 3.5 | 6.1 | 0.00 | 0.05 | 0.05 | 82 | 1007.7 |
| 20260506192336 | 68 | 255 | 3.5 | 5.2 | 0.00 | 0.05 | 0.05 | 83 | 1007.8 |
| 20260506191833 | 67 | 189 | 4.3 | 6.1 | 0.00 | 0.05 | 0.05 | 83 | 1008.0 |
| 20260506191329 | 67 | 182 | 5.2 | 7.8 | 0.00 | 0.05 | 0.05 | 84 | 1007.8 |
| 20260506190826 | 67 | 263 | 2.6 | 4.3 | 0.00 | 0.05 | 0.05 | 86 | 1007.8 |
| 20260506190322 | 67 | 260 | 3.5 | 9.6 | 0.00 | 0.05 | 0.05 | 84 | 1007.9 |
| 20260506185819 | 66 | 178 | 7.8 | 11.3 | 0.00 | 0.05 | 0.05 | 88 | 1008.0 |
| 20260506185316 | 66 | 115 | 5.2 | 6.1 | 0.00 | 0.05 | 0.05 | 89 | 1008.3 |
| 20260506184813 | 65 | 264 | 4.3 | 5.2 | 0.00 | 0.05 | 0.05 | 89 | 1008.6 |
| 20260506184311 | 65 | 201 | 2.6 | 4.3 | 0.00 | 0.05 | 0.05 | 91 | 1008.5 |
| 20260506183808 | 65 | 121 | 2.6 | 4.3 | 0.00 | 0.05 | 0.05 | 91 | 1008.4 |
| 20260506183303 | 65 | 75 | 0.0 | 4.3 | 0.00 | 0.05 | 0.05 | 92 | 1008.3 |
| 20260506182800 | 64 | 225 | 3.5 | 7.0 | 0.00 | 0.05 | 0.05 | 92 | 1008.4 |
| 20260506182257 | 64 | 156 | 1.7 | 4.3 | 0.00 | 0.05 | 0.05 | 94 | 1008.4 |
| 20260506181755 | 64 | 191 | 1.7 | 4.3 | 0.00 | 0.05 | 0.05 | 95 | 1008.7 |
| 20260506181253 | 64 | 251 | 0.9 | 5.2 | 0.02 | 0.05 | 0.05 | 96 | 1008.6 |
| 20260506180750 | 63 | 228 | 0.0 | 3.5 | 0.09 | 0.05 | 0.05 | 95 | 1008.6 |
| 20260506180245 | 63 | 152 | 1.7 | 7.8 | 0.09 | 0.05 | 0.05 | 94 | 1008.9 |
| 20260506175742 | 63 | 216 | 4.3 | 5.2 | 0.05 | 0.04 | 0.04 | 93 | 1009.0 |
| 20260506175239 | 64 | 205 | 2.6 | 8.7 | 0.12 | 0.03 | 0.03 | 91 | 1008.7 |
| 20260506174737 | 64 | 255 | 2.6 | 7.8 | 0.12 | 0.02 | 0.02 | 90 | 1008.9 |
| 20260506174233 | 66 | 206 | 2.6 | 7.0 | 0.07 | 0.01 | 0.01 | 85 | 1009.0 |
| 20260506173732 | 67 | 291 | 0.0 | 4.3 | 0.00 | 0.00 | 0.00 | 81 | 1008.7 |
| 20260506173228 | 69 | 198 | 4.3 | 7.8 | 0.00 | 0.00 | 0.00 | 74 | 1009.1 |
| 20260506172724 | 70 | 180 | 0.0 | 6.1 | 0.00 | 0.00 | 0.00 | 72 | 1009.1 |
| 20260506172221 | 70 | 221 | 1.7 | 6.1 | 0.00 | 0.00 | 0.00 | 70 | 1008.8 |
| 20260506171719 | 71 | 170 | 3.5 | 5.2 | 0.00 | 0.00 | 0.00 | 70 | 1009.1 |
| 20260506171216 | 71 | 228 | 1.7 | 8.7 | 0.00 | 0.00 | 0.00 | 70 | 1009.0 |
| 20260506170713 | 71 | 99 | 2.6 | 7.0 | 0.00 | 0.00 | 0.00 | 71 | 1008.9 |
| 20260506170210 | 72 | 227 | 2.6 | 4.3 | 0.00 | 0.00 | 0.00 | 68 | 1008.9 |
| 20260506165708 | 73 | 241 | 3.5 | 3.5 | 0.00 | 0.00 | 0.00 | 66 | 1008.8 |
| 20260506165205 | 72 | 270 | 1.7 | 4.3 | 0.00 | 0.00 | 0.00 | 65 | 1009.2 |
| 20260506164702 | 73 | 208 | 1.7 | 7.8 | 0.00 | 0.00 | 0.00 | 65 | 1009.0 |
| 20260506164159 | 73 | 243 | 2.6 | 6.1 | 0.00 | 0.00 | 0.00 | 64 | 1009.1 |
| 20260506163655 | 73 | 166 | 4.3 | 9.6 | 0.00 | 0.00 | 0.00 | 63 | 1009.5 |
| 20260506163151 | 73 | 149 | 2.6 | 4.3 | 0.00 | 0.00 | 0.00 | 64 | 1009.5 |
| 20260506162647 | 73 | 248 | 7.0 | 7.0 | 0.00 | 0.00 | 0.00 | 63 | 1009.5 |
| 20260506162144 | 73 | 255 | 0.0 | 6.1 | 0.00 | 0.00 | 0.00 | 64 | 1009.6 |
| 20260506161641 | 73 | 274 | 2.6 | 7.0 | 0.00 | 0.00 | 0.00 | 64 | 1009.7 |
| 20260506161138 | 73 | 150 | 3.5 | 12.2 | 0.00 | 0.00 | 0.00 | 64 | 1010.0 |
| 20260506160636 | 72 | 165 | 3.5 | 9.6 | 0.00 | 0.00 | 0.00 | 64 | 1010.0 |
| 20260506160133 | 73 | 195 | 0.9 | 6.1 | 0.00 | 0.00 | 0.00 | 65 | 1009.9 |
| 20260506155632 | 72 | 258 | 2.6 | 5.2 | 0.00 | 0.00 | 0.00 | 65 | 1009.9 |
| 20260506155128 | 72 | 288 | 3.5 | 5.2 | 0.00 | 0.00 | 0.00 | 65 | 1010.2 |
| 20260506153230 | 72 | 256 | 6.1 | 8.7 | 0.00 | 0.00 | 0.00 | 64 | 1010.2 |
| 20260506152727 | 72 | 180 | 0.0 | 4.3 | 0.00 | 0.00 | 0.00 | 64 | 1010.0 |
| 20260506152224 | 72 | 247 | 4.3 | 5.2 | 0.00 | 0.00 | 0.00 | 62 | 1010.2 |
| 20260506151724 | 72 | 292 | 1.7 | 7.8 | 0.00 | 0.00 | 0.00 | 63 | 1010.3 |
| 20260506151219 | 72 | 133 | 5.2 | 7.8 | 0.00 | 0.00 | 0.00 | 62 | 1010.2 |
| 20260506150716 | 72 | 260 | 3.5 | 7.0 | 0.00 | 0.00 | 0.00 | 62 | 1010.1 |
| 20260506150213 | 72 | 255 | 2.6 | 7.8 | 0.00 | 0.00 | 0.00 | 64 | 1010.0 |
| 20260506145710 | 72 | 255 | 2.6 | 10.4 | 0.00 | 0.00 | 0.00 | 63 | 1010.2 |
| 20260506145207 | 72 | 291 | 2.6 | 7.8 | 0.00 | 0.00 | 0.00 | 61 | 1010.4 |
| 20260506144704 | 72 | 282 | 1.7 | 10.4 | 0.00 | 0.00 | 0.00 | 64 | 1010.3 |
| 20260506144201 | 72 | 163 | 3.5 | 11.3 | 0.00 | 0.00 | 0.00 | 63 | 1010.4 |
| 20260506143659 | 71 | 215 | 4.3 | 8.7 | 0.00 | 0.00 | 0.00 | 64 | 1010.3 |
| 20260506143156 | 71 | 227 | 7.8 | 7.8 | 0.00 | 0.00 | 0.00 | 64 | 1010.5 |
| 20260506142655 | 71 | 176 | 1.7 | 7.8 | 0.00 | 0.00 | 0.00 | 64 | 1010.5 |
| 20260506142152 | 72 | 202 | 1.7 | 7.8 | 0.00 | 0.00 | 0.00 | 64 | 1010.3 |
| 20260506141650 | 71 | 241 | 1.7 | 11.3 | 0.00 | 0.00 | 0.00 | 63 | 1010.5 |
| 20260506141148 | 73 | 290 | 4.3 | 7.8 | 0.00 | 0.00 | 0.00 | 62 | 1010.6 |
| 20260506140645 | 71 | 273 | 2.6 | 8.7 | 0.00 | 0.00 | 0.00 | 65 | 1010.4 |
| 20260506140142 | 71 | 197 | 0.0 | 11.3 | 0.00 | 0.00 | 0.00 | 64 | 1010.5 |
| 20260506135639 | 71 | 96 | 0.0 | 8.7 | 0.00 | 0.00 | 0.00 | 65 | 1010.3 |
| 20260506135135 | 70 | 195 | 3.5 | 7.0 | 0.00 | 0.00 | 0.00 | 65 | 1010.6 |
| 20260506134632 | 69 | 192 | 5.2 | 6.1 | 0.00 | 0.00 | 0.00 | 67 | 1010.4 |
| 20260506134127 | 69 | 161 | 1.7 | 6.1 | 0.00 | 0.00 | 0.00 | 67 | 1010.5 |
| 20260506133625 | 69 | 202 | 3.5 | 3.5 | 0.00 | 0.00 | 0.00 | 66 | 1010.6 |
| 20260506133122 | 71 | 204 | 0.0 | 4.3 | 0.00 | 0.00 | 0.00 | 65 | 1010.5 |
| 20260506132619 | 71 | 204 | 0.0 | 4.3 | 0.00 | 0.00 | 0.00 | 65 | 1010.5 |
| 20260506132116 | 71 | 248 | 5.2 | 11.3 | 0.00 | 0.00 | 0.00 | 63 | 1010.7 |
| 20260506131614 | 71 | 0 | 0.0 | 5.2 | 0.00 | 0.00 | 0.00 | 66 | 1010.8 |
| 20260506131110 | 71 | 225 | 2.6 | 4.3 | 0.00 | 0.00 | 0.00 | 64 | 1011.0 |
| 20260506130607 | 72 | 8 | 0.0 | 2.6 | 0.00 | 0.00 | 0.00 | 64 | 1010.8 |
| 20260506130104 | 72 | 233 | 2.6 | 5.2 | 0.00 | 0.00 | 0.00 | 64 | 1011.0 |
| 20260506125603 | 71 | 212 | 3.5 | 7.0 | 0.00 | 0.00 | 0.00 | 65 | 1010.7 |
| 20260506125100 | 71 | 180 | 3.5 | 7.0 | 0.00 | 0.00 | 0.00 | 65 | 1010.7 |
| 20260506124557 | 70 | 340 | 0.0 | 7.8 | 0.00 | 0.00 | 0.00 | 67 | 1010.9 |
| 20260506124055 | 70 | 207 | 3.5 | 6.1 | 0.00 | 0.00 | 0.00 | 66 | 1010.8 |
| 20260506123552 | 70 | 161 | 4.3 | 6.1 | 0.00 | 0.00 | 0.00 | 66 | 1010.9 |
| 20260506123051 | 70 | 177 | 2.6 | 4.3 | 0.00 | 0.00 | 0.00 | 67 | 1010.9 |
| 20260506122547 | 70 | 264 | 0.9 | 7.0 | 0.00 | 0.00 | 0.00 | 68 | 1010.9 |
| 20260506122045 | 70 | 253 | 5.2 | 8.7 | 0.00 | 0.00 | 0.00 | 68 | 1011.0 |
| 20260506121542 | 68 | 173 | 0.9 | 8.7 | 0.00 | 0.00 | 0.00 | 69 | 1010.8 |
| 20260506121038 | 68 | 230 | 2.6 | 14.8 | 0.00 | 0.00 | 0.00 | 73 | 1010.9 |
| 20260506120537 | 67 | 195 | 1.7 | 2.6 | 0.00 | 0.00 | 0.00 | 72 | 1010.9 |
| 20260506120034 | 68 | 249 | 6.1 | 7.0 | 0.00 | 0.00 | 0.00 | 71 | 1010.9 |
| 20260506115532 | 68 | 211 | 4.3 | 5.2 | 0.00 | 0.00 | 0.00 | 72 | 1011.0 |
| 20260506115030 | 67 | 37 | 3.5 | 5.2 | 0.00 | 0.00 | 0.00 | 74 | 1011.0 |
| 20260506114527 | 67 | 180 | 0.9 | 6.1 | 0.00 | 0.00 | 0.00 | 75 | 1011.0 |
| 20260506114026 | 66 | 107 | 3.5 | 6.1 | 0.00 | 0.00 | 0.00 | 76 | 1010.9 |
| 20260506113523 | 66 | 300 | 0.9 | 3.5 | 0.00 | 0.00 | 0.00 | 77 | 1010.9 |
| 20260506113020 | 65 | 225 | 2.6 | 3.5 | 0.00 | 0.00 | 0.00 | 79 | 1010.8 |
| 20260506112516 | 64 | 151 | 0.9 | 3.5 | 0.00 | 0.00 | 0.00 | 79 | 1010.7 |
| 20260506112014 | 64 | 167 | 2.6 | 4.3 | 0.00 | 0.00 | 0.00 | 80 | 1010.7 |
| 20260506111512 | 63 | 133 | 2.6 | 3.5 | 0.00 | 0.00 | 0.00 | 83 | 1010.9 |
| 20260506111009 | 62 | 97 | 2.6 | 5.2 | 0.00 | 0.00 | 0.00 | 83 | 1010.8 |
| 20260506110507 | 62 | 312 | 0.0 | 3.5 | 0.00 | 0.00 | 0.00 | 85 | 1011.0 |
| 20260506110004 | 62 | 114 | 0.9 | 2.6 | 0.00 | 0.00 | 0.00 | 85 | 1010.8 |
| 20260506105459 | 62 | 170 | 2.6 | 4.3 | 0.00 | 0.00 | 0.00 | 85 | 1010.9 |
| 20260506104957 | 61 | 237 | 2.6 | 3.5 | 0.00 | 0.00 | 0.00 | 86 | 1010.8 |
| 20260506104455 | 61 | 195 | 0.0 | 3.5 | 0.00 | 0.00 | 0.00 | 87 | 1011.0 |
| 20260506103953 | 60 | 248 | 0.0 | 1.7 | 0.00 | 0.00 | 0.00 | 87 | 1010.8 |
| 20260506103449 | 60 | 182 | 2.6 | 3.5 | 0.00 | 0.00 | 0.00 | 88 | 1011.1 |
| 20260506102946 | 60 | 270 | 0.0 | 3.5 | 0.00 | 0.00 | 0.00 | 88 | 1010.9 |
| 20260506102444 | 60 | 233 | 2.6 | 4.3 | 0.00 | 0.00 | 0.00 | 88 | 1010.7 |
| 20260506101941 | 60 | 253 | 0.0 | 3.5 | 0.00 | 0.00 | 0.00 | 88 | 1010.7 |
| 20260506101438 | 60 | 173 | 3.5 | 3.5 | 0.00 | 0.00 | 0.00 | 88 | 1010.7 |
| 20260506100935 | 60 | 160 | 0.9 | 5.2 | 0.00 | 0.00 | 0.00 | 89 | 1010.6 |
| 20260506100433 | 60 | 162 | 1.7 | 1.7 | 0.00 | 0.00 | 0.00 | 89 | 1010.7 |
| 20260506095931 | 60 | 198 | 1.7 | 4.3 | 0.00 | 0.00 | 0.00 | 89 | 1010.8 |
| 20260506095429 | 60 | 246 | 0.0 | 2.6 | 0.00 | 0.00 | 0.00 | 90 | 1010.7 |
| 20260506094925 | 60 | 237 | 1.7 | 6.1 | 0.00 | 0.00 | 0.00 | 90 | 1010.5 |
| 20260506094424 | 59 | 249 | 3.5 | 3.5 | 0.00 | 0.00 | 0.00 | 90 | 1010.7 |
| 20260506093921 | 60 | 169 | 1.7 | 4.3 | 0.00 | 0.00 | 0.00 | 90 | 1010.6 |
| 20260506093419 | 60 | 180 | 2.6 | 4.3 | 0.00 | 0.00 | 0.00 | 90 | 1010.6 |
| 20260506092917 | 60 | 125 | 1.7 | 3.5 | 0.00 | 0.00 | 0.00 | 90 | 1010.5 |
| 20260506092415 | 60 | 121 | 2.6 | 2.6 | 0.00 | 0.00 | 0.00 | 91 | 1010.8 |
| 20260506091911 | 60 | 114 | 0.9 | 3.5 | 0.00 | 0.00 | 0.00 | 91 | 1010.7 |
| 20260506091409 | 60 | 146 | 1.7 | 1.7 | 0.00 | 0.00 | 0.00 | 91 | 1010.7 |
| 20260506090905 | 60 | 186 | 0.9 | 1.7 | 0.00 | 0.00 | 0.00 | 90 | 1010.8 |
| 20260506090403 | 60 | 254 | 0.9 | 1.7 | 0.00 | 0.00 | 0.00 | 90 | 1010.7 |
| 20260506085900 | 60 | 187 | 0.0 | 4.3 | 0.00 | 0.00 | 0.00 | 90 | 1010.8 |
| 20260506085356 | 60 | 180 | 0.0 | 2.6 | 0.00 | 0.00 | 0.00 | 90 | 1010.9 |
| 20260506084853 | 60 | 201 | 1.7 | 2.6 | 0.00 | 0.00 | 0.00 | 90 | 1011.0 |
| 20260506084349 | 60 | 164 | 0.0 | 2.6 | 0.00 | 0.00 | 0.00 | 91 | 1010.8 |
| 20260506083846 | 60 | 270 | 0.0 | 1.7 | 0.00 | 0.00 | 0.00 | 91 | 1010.9 |
| 20260506083344 | 60 | 243 | 0.9 | 3.5 | 0.00 | 0.00 | 0.00 | 90 | 1011.0 |
| 20260506082841 | 60 | 185 | 0.9 | 3.5 | 0.00 | 0.00 | 0.00 | 90 | 1011.2 |
| 20260506082337 | 60 | 157 | 0.9 | 2.6 | 0.00 | 0.00 | 0.00 | 91 | 1011.0 |
| 20260506081833 | 59 | 124 | 0.0 | 2.6 | 0.00 | 0.00 | 0.00 | 91 | 1010.9 |
| 20260506081332 | 60 | 63 | 0.0 | 3.5 | 0.00 | 0.00 | 0.00 | 91 | 1011.0 |
| 20260506080829 | 60 | 251 | 1.7 | 4.3 | 0.00 | 0.00 | 0.00 | 90 | 1010.9 |
| 20260506080325 | 60 | 138 | 2.6 | 2.6 | 0.00 | 0.00 | 0.00 | 91 | 1010.8 |
| 20260506073310 | 60 | 232 | 1.7 | 2.6 | 0.00 | 0.00 | 0.00 | 90 | 1011.0 |
| 20260506072806 | 60 | 261 | 0.0 | 2.6 | 0.00 | 0.00 | 0.00 | 90 | 1011.3 |
| 20260506072305 | 60 | 185 | 1.7 | 3.5 | 0.00 | 0.00 | 0.00 | 90 | 1011.2 |
| 20260506071801 | 60 | 121 | 0.0 | 3.5 | 0.00 | 0.00 | 0.00 | 89 | 1011.1 |
| 20260506071259 | 60 | 188 | 0.0 | 3.5 | 0.00 | 0.00 | 0.00 | 89 | 1011.2 |
| 20260506070756 | 61 | 216 | 1.7 | 1.7 | 0.00 | 0.00 | 0.00 | 89 | 1011.1 |
| 20260506070253 | 61 | 202 | 0.0 | 3.5 | 0.00 | 0.00 | 0.00 | 89 | 1011.3 |
| 20260506062230 | 62 | 219 | 1.7 | 2.6 | 0.00 | 0.00 | 0.00 | 86 | 1011.3 |
| 20260506061726 | 62 | 165 | 0.0 | 2.6 | 0.00 | 0.00 | 0.00 | 85 | 1011.2 |
| 20260506061224 | 63 | 286 | 1.7 | 2.6 | 0.00 | 0.00 | 0.00 | 84 | 1011.2 |
| 20260506060722 | 63 | 202 | 4.3 | 6.1 | 0.00 | 0.00 | 0.00 | 85 | 1011.3 |
| 20260506060219 | 63 | 233 | 1.7 | 3.5 | 0.00 | 0.00 | 0.00 | 84 | 1011.2 |
| 20260506051151 | 63 | 109 | 2.6 | 3.5 | 0.00 | 0.00 | 0.00 | 84 | 1011.8 |
| 20260506050649 | 63 | 203 | 1.7 | 7.8 | 0.00 | 0.00 | 0.00 | 84 | 1011.7 |
| 20260506050146 | 63 | 140 | 1.7 | 2.6 | 0.00 | 0.00 | 0.00 | 83 | 1011.8 |
| 20260506044637 | 63 | 114 | 0.0 | 7.0 | 0.00 | 0.00 | 0.00 | 83 | 1011.9 |
| 20260506044134 | 63 | 180 | 1.7 | 3.5 | 0.00 | 0.00 | 0.00 | 83 | 1011.6 |
| 20260506043631 | 63 | 180 | 0.0 | 3.5 | 0.00 | 0.00 | 0.00 | 83 | 1011.9 |
| 20260506043129 | 63 | 180 | 1.7 | 2.6 | 0.00 | 0.00 | 0.00 | 83 | 1011.7 |
| 20260506042627 | 63 | 109 | 2.6 | 4.3 | 0.00 | 0.00 | 0.00 | 83 | 1011.7 |
| 20260506042125 | 63 | 127 | 3.5 | 3.5 | 0.00 | 0.00 | 0.00 | 83 | 1011.7 |
| 20260506041624 | 63 | 201 | 2.6 | 2.6 | 0.00 | 0.00 | 0.00 | 82 | 1011.7 |
| 20260506041120 | 64 | 180 | 0.0 | 5.2 | 0.00 | 0.00 | 0.00 | 82 | 1011.7 |
| 20260506040618 | 64 | 129 | 4.3 | 4.3 | 0.00 | 0.00 | 0.00 | 81 | 1011.5 |
| 20260506040114 | 64 | 135 | 2.6 | 4.3 | 0.00 | 0.00 | 0.00 | 81 | 1011.7 |
| 20260506035611 | 64 | 276 | 2.6 | 4.3 | 0.00 | 0.00 | 0.00 | 80 | 1011.9 |
| 20260506035108 | 64 | 209 | 2.6 | 5.2 | 0.00 | 0.00 | 0.00 | 80 | 1011.5 |
| 20260506034605 | 64 | 165 | 0.0 | 2.6 | 0.00 | 0.00 | 0.00 | 79 | 1011.6 |
| 20260506034102 | 65 | 168 | 0.9 | 2.6 | 0.00 | 0.00 | 0.00 | 79 | 1011.5 |